• Join FlightAware (Why Join?)
  • Login
  • US Flag GB Flag 
06:51 EDT


 

Airport Tracker/Info


-or-


 

Live Flight TrackerFlight Track Log ✈ CJT574 ✈ 04-Jul-2013 ✈ CYWG - CYHM

Flight Track Log - Related Links

Times and Time Zones

All times are in EDT time to prevent confusion due to time zone crossing. See the CJT574 flight status page for this flight to view local times or setup timezone preferences in your user account.

Time Position Orientation Groundspeed Altitude Reporting Facility
EDT Latitude Longitude Course Direction KTS MPH feet Rate Location/Type
02:20 49.8667 -97.2333 102° East 140 161 2,400  Level Winnipeg Center
02:21 49.8167 -97.2333 180° South 160 184 3,900 1,080 Climbing Winnipeg Center
02:22 49.7667 -97.2000 157° South 220 253 4,600 1,380 Climbing Winnipeg Center
02:23 49.7167 -97.1167 133° Southeast 260 299 6,700 2,160 Climbing Winnipeg Center
02:24 49.6833 -97.0167 117° Southeast 290 334 9,000 2,100 Climbing Winnipeg Center
02:25 49.7713 -96.1756 102° East  Level FlightAware Approximate
02:25 49.6667 -96.8833 101° East 310 357 10,900  Level Winnipeg Center
02:26 49.6333 -96.7667 114° Southeast 360 414 11,600 1,200 Climbing Winnipeg Center
02:27 49.5833 -96.6000 115° Southeast 400 460 13,400 2,400 Climbing Winnipeg Center
02:28 49.5500 -96.4500 109° East 380 437 16,400 1,980 Climbing Winnipeg Center
02:29 49.5000 -96.3000 117° Southeast 390 449 17,400 1,200 Climbing Winnipeg Center
02:30 49.4500 -96.1167 113° Southeast 410 472 18,900 1,680 Climbing Winnipeg Center
02:31 49.4000 -95.9667 117° Southeast 430 495 20,800 1,740 Climbing Winnipeg Center
02:32 49.3500 -95.7833 113° Southeast 420 483 22,400 1,200 Climbing Winnipeg Center
02:33 49.3000 -95.6000 113° Southeast 440 506 23,200 960 Climbing Winnipeg Center
02:34 49.2667 -95.4500 109° East 450 518 24,400 1,500 Climbing Winnipeg Center
02:35 49.2167 -95.2500 111° Southeast 460 529 26,300 1,800 Climbing Winnipeg Center
02:36 49.1667 -95.1000 117° Southeast 450 518 28,000 900 Climbing Winnipeg Center
02:37 49.1000 -94.9000 117° Southeast 450 518 28,200 600 Climbing Winnipeg Center
02:38 49.0500 -94.7500 117° Southeast 460 529 29,300 900 Climbing Winnipeg Center
02:39 49.0000 -94.5500 111° Southeast 470 541 30,100 900 Climbing Winnipeg Center
02:40 48.9500 -94.3667 112° Southeast 470 541 31,200 900 Climbing Winnipeg Center
02:41 48.8833 -94.2000 121° Southeast 470 541 32,000 960 Climbing Winnipeg Center
02:42 48.8333 -94.0000 111° Southeast 480 552 33,200 960 Climbing Winnipeg Center
02:43 48.7833 -93.8167 112° Southeast 470 541 34,000 540 Climbing Winnipeg Center
02:44 48.7333 -93.6500 114° Southeast 480 552 34,300 480 Climbing Winnipeg Center
02:45 48.6667 -93.4667 119° Southeast 480 552 35,000 300 Climbing Winnipeg Center
02:46 48.6000 -93.2833 119° Southeast 480 552 35,000  Level Winnipeg Center
02:47 48.5944 -93.2008 96° East 482 555 35,000  Level Minneapolis Center
02:48 48.5372 -93.0186 115° Southeast 481 554 35,000  Level Minneapolis Center
02:49 48.4800 -92.8372 115° Southeast 480 552 35,000  Level Minneapolis Center
02:50 48.4219 -92.6567 116° Southeast 479 551 35,000  Level Minneapolis Center
02:51 48.3647 -92.4767 116° Southeast 478 550 35,000  Level Minneapolis Center
02:52 48.3061 -92.2992 116° Southeast 475 547 35,000  Level Minneapolis Center
02:53 48.2492 -92.1200 115° Southeast 475 547 35,000  Level Minneapolis Center
02:54 48.1903 -91.9444 117° Southeast 472 543 35,000  Level Minneapolis Center
02:55 48.1317 -91.7683 116° Southeast 472 543 35,000  Level Minneapolis Center
02:57 48.0033 -91.3856 117° Southeast 468 539 35,000 -60 Level Minneapolis Center
02:58 47.9433 -91.2133 117° Southeast 468 539 34,900  Descending Minneapolis Center
02:59 47.8867 -91.0417 116° Southeast 464 534 35,000  Climbing Minneapolis Center
03:00 47.8278 -90.8731 117° Southeast 461 531 35,000 -60 Level Minneapolis Center
03:01 47.7692 -90.7033 117° Southeast 462 532 34,900  Descending Minneapolis Center
03:02 47.7103 -90.5347 117° Southeast 461 531 35,000  Climbing Minneapolis Center
03:03 47.6517 -90.3667 117° Southeast 460 529 35,000  Level Minneapolis Center
03:04 47.5964 -90.2108 118° Southeast 458 527 35,000  Level Minneapolis Center
03:05 47.5361 -90.0439 118° Southeast 459 528 35,000  Level Minneapolis Center
03:06 47.4642 -89.8442 118° Southeast 458 527 35,000  Level Minneapolis Center
03:07 47.4039 -89.6778 118° Southeast 458 527 35,000  Level Minneapolis Center
03:08 47.3431 -89.5111 118° Southeast 459 528 35,000  Level Minneapolis Center
03:09 47.2819 -89.3431 118° Southeast 463 533 35,000  Level Minneapolis Center
03:10 47.2200 -89.1753 118° Southeast 464 534 35,000  Level Minneapolis Center
03:11 47.1578 -89.0083 119° Southeast 465 535 35,000  Level Minneapolis Center
03:12 47.0956 -88.8389 118° Southeast 468 539 35,000  Level Minneapolis Center
03:13 47.0322 -88.6717 119° Southeast 468 539 35,000  Level Minneapolis Center
03:14 46.9689 -88.5033 119° Southeast 469 540 35,000  Level Minneapolis Center
03:15 46.9061 -88.3397 119° Southeast 465 535 35,000  Level Minneapolis Center
03:16 46.8431 -88.1744 119° Southeast 464 534 35,000  Level Minneapolis Center
03:17 46.7789 -88.0061 119° Southeast 468 539 35,000  Level Minneapolis Center
03:18 46.7144 -87.8419 120° Southeast 466 536 35,000  Level Minneapolis Center
03:19 46.6511 -87.6814 120° Southeast 466 536 35,000  Level Minneapolis Center
03:20 46.5889 -87.5192 119° Southeast 463 533 35,000  Level Minneapolis Center
03:21 46.5253 -87.3583 120° Southeast 460 529 35,000  Level Minneapolis Center
03:22 46.4617 -87.1981 120° Southeast 458 527 35,000  Level Minneapolis Center
03:23 46.3983 -87.0372 120° Southeast 460 529 35,000  Level Minneapolis Center
03:24 46.3336 -86.8767 120° Southeast 462 532 35,000  Level Minneapolis Center
03:25 46.2683 -86.7139 120° Southeast 466 536 35,000  Level Minneapolis Center
03:26 46.2019 -86.5544 121° Southeast 463 533 35,000  Level Minneapolis Center
03:27 46.1367 -86.3914 120° Southeast 467 537 35,000  Level Minneapolis Center
03:28 46.0706 -86.2292 120° Southeast 469 540 35,000  Level Minneapolis Center
03:29 46.0033 -86.0694 121° Southeast 466 536 35,000  Level Minneapolis Center
03:30 45.9361 -85.9067 121° Southeast 470 541 35,000  Level Minneapolis Center
03:31 45.8681 -85.7444 121° Southeast 473 544 35,000  Level Minneapolis Center
03:32 45.8017 -85.5828 120° Southeast 471 542 35,000  Level Minneapolis Center
03:33 45.7331 -85.4236 122° Southeast 470 541 35,000  Level Minneapolis Center
03:34 45.6650 -85.2636 121° Southeast 470 541 35,000  Level Minneapolis Center
03:35 45.5981 -85.1053 121° Southeast 467 537 35,000  Level Minneapolis Center
03:36 45.5292 -84.9461 122° Southeast 467 537 35,000  Level Minneapolis Center
03:37 45.4617 -84.7889 121° Southeast 466 536 35,000  Level Minneapolis Center
03:38 45.3931 -84.6331 122° Southeast 465 535 35,000  Level Minneapolis Center
03:39 45.3256 -84.4772 122° Southeast 464 534 35,000  Level Minneapolis Center
03:40 45.2583 -84.3225 122° Southeast 462 532 35,000  Level Minneapolis Center
03:41 45.1897 -84.1664 122° Southeast 463 533 35,000  Level Minneapolis Center
03:42 45.1203 -84.0117 122° Southeast 464 534 35,000  Level Minneapolis Center
03:43 45.0525 -83.8589 122° Southeast 463 533 35,000  Level Minneapolis Center
03:44 44.9842 -83.7053 122° Southeast 462 532 35,000  Level Minneapolis Center
03:45 44.9153 -83.5517 122° Southeast 462 532 35,000  Level Minneapolis Center
03:46 44.8461 -83.3972 122° Southeast 465 535 35,000  Level Minneapolis Center
03:47 44.7750 -83.2450 123° Southeast 466 536 35,000  Level Minneapolis Center
03:48 44.7053 -83.0908 122° Southeast 467 537 35,000  Level Minneapolis Center
03:49 44.6356 -82.9372 122° Southeast 466 536 35,000  Level Minneapolis Center
03:50 44.5644 -82.7847 123° Southeast 469 540 35,000  Level Minneapolis Center
03:51 44.4928 -82.6314 123° Southeast 469 540 35,000  Level Minneapolis Center
03:52 44.4092 -82.4494 123° Southeast 467 537 35,000  Level Minneapolis Center
03:53 44.3364 -82.2969 124° Southeast 469 540 35,000  Level Minneapolis Center
03:54 44.2333 -82.1000 126° Southeast 470 541 35,000  Level Toronto Center
03:55 44.1500 -81.9500 128° Southeast 470 541 35,000  Level Toronto Center
03:56 44.1000 -81.8000 115° Southeast 470 541 35,000 -180 Level Toronto Center
03:57 44.0167 -81.6500 128° Southeast 480 552 34,700 -1,020 Descending Toronto Center
03:58 43.9333 -81.4833 125° Southeast 480 552 33,000 -2,940 Descending Toronto Center
03:59 43.8500 -81.3500 131° Southeast 470 541 28,900 -4,260 Descending Toronto Center
04:00 43.7833 -81.2000 122° Southeast 470 541 24,500 -4,680 Descending Toronto Center
04:01 43.7167 -81.0667 125° Southeast 430 495 19,600 -4,500 Descending Toronto Center
04:02 43.6500 -80.9500 128° Southeast 400 460 15,600 -3,360 Descending Toronto Center
04:03 43.6000 -80.8500 125° Southeast 340 391 12,900 -2,400 Descending Toronto Center
04:04 43.5500 -80.7333 121° Southeast 330 380 10,800 -1,740 Descending Toronto Center
04:05 43.5000 -80.6500 130° Southeast 300 345 9,500 -1,560 Descending Toronto Center
04:06 43.4500 -80.5667 130° Southeast 290 334 7,700 -1,500 Descending Toronto Center
04:07 43.4167 -80.4833 119° Southeast 280 322 6,500 -1,080 Descending Toronto Center
04:08 43.3667 -80.3833 124° Southeast 290 334 5,600 -960 Descending Toronto Center
04:09 43.3167 -80.3000 129° Southeast 280 322 4,600 -780 Descending Toronto Center
04:10 43.2667 -80.2333 136° Southeast 280 322 4,100 -600 Descending Toronto Center
04:11 43.2167 -80.1333 124° Southeast 260 299 3,400 -660 Descending Toronto Center
04:12 43.2000 -80.0667 109° East 230 265 2,800 -780 Descending Toronto Center
04:13 43.1833 -80.0000 109° East 180 207 1,900 -840 Descending Toronto Center
04:14 43.1833 -79.9500 90° East 140 161 1,200 -600 Descending Toronto Center
04:15 43.1667 -79.9000 115° Southeast 130 150 800 -420 Descending Toronto Center